Weather observations for the past three days for
Estherville, Estherville Municipal Airport
| Date | Time (cdt) | Wind (kph) | Vis. (km) | Weather | Sky Cond. | Temperature (ºC) | Relative Humidity | Wind Chill (°C) | Heat Index (°C) | Pressure | Precipitation (cm) | ||||||
|---|---|---|---|---|---|---|---|---|---|---|---|---|---|---|---|---|---|
| Air | Dwpt | 6 hour | altimeter (cm) | sea level (mb) | 1 hr | 3 hr | 6 hr | ||||||||||
| Max. | Min. | ||||||||||||||||
| 04 | 19:49 | NW 41 G 56 | 16.09 | Fair and Breezy | CLR | 11.7 | -3.3 | 35% | 75.49 | 1006.4 | |||||||
| 04 | 18:49 | NW 37 G 52 | 16.09 | A Few Clouds and Breezy | FEW120 | 13.3 | -2.2 | 20 | 13.3 | 34% | 75.41 | 1005.4 | |||||
| 04 | 17:49 | NW 46 G 61 | 16.09 | Partly Cloudy and Windy | SCT095 | 14.4 | -2.2 | 32% | 75.36 | 1004.9 | |||||||
| 04 | 16:49 | NW 35 G 56 | 16.09 | Mostly Cloudy and Breezy | BKN110 | 15 | -1.7 | 32% | 75.34 | 1004.3 | |||||||
| 04 | 15:49 | NW 48 G 67 | 11.27 | Fair and Windy | CLR | 16.7 | -2.2 | 28% | 75.29 | 1003.4 | |||||||
| 04 | 14:49 | NW 43 G 61 | 16.09 | Fair and Windy | CLR | 19.4 | -1.7 | 24% | 75.26 | 1003.1 | |||||||
| 04 | 13:49 | NW 35 G 59 | 16.09 | Fair and Breezy | CLR | 19.4 | -2.8 | 22% | 75.23 | 1002.8 | |||||||
| 04 | 12:49 | NW 41 G 57 | 16.09 | Fair and Breezy | CLR | 19.4 | -1.1 | 19.4 | 11.7 | 25% | 75.18 | 1002.1 | |||||
| 04 | 11:49 | N 24 G 46 | 16.09 | Fair | CLR | 18.3 | -0.6 | 28% | 75.13 | 1001.6 | |||||||
| 04 | 10:49 | NW 31 G 46 | 16.09 | Fair | CLR | 17.8 | 0.6 | 32% | 75.11 | 1001.1 | |||||||
| 04 | 09:49 | N 35 G 48 | 16.09 | Fair and Breezy | CLR | 17.2 | 3.9 | 41% | 75.06 | 1000.5 | |||||||
| 04 | 08:49 | W 35 G 48 | 16.09 | Fair and Breezy | CLR | 18.3 | 3.3 | 37% | 75.03 | 1000.0 | |||||||
| 04 | 07:49 | SW 26 | 16.09 | Fair | CLR | 14.4 | 2.2 | 44% | 74.98 | 999.1 | |||||||
| 04 | 06:49 | SW 24 | 16.09 | Fair | CLR | 11.7 | 1.7 | 13.3 | 11.1 | 51% | 74.98 | 999.2 | |||||
| 04 | 05:49 | SW 26 | 16.09 | Partly Cloudy | SCT100 | 12.2 | 1.1 | 47% | 75.01 | 999.7 | |||||||
| 04 | 04:49 | SW 22 | 16.09 | Fair | CLR | 12.2 | 1.1 | 47% | 75.06 | 1000.1 | |||||||
| 04 | 03:49 | SW 24 | 16.09 | Fair | CLR | 12.8 | 0.6 | 44% | 75.08 | 1000.5 | |||||||
| 04 | 02:49 | SW 17 | 16.09 | Fair | CLR | 11.7 | 0.6 | 47% | 75.16 | 1001.5 | |||||||
| 04 | 00:49 | SW 15 | 16.09 | Fair | CLR | 10.6 | 0 | 22.2 | 9.4 | 48% | 75.29 | 1003.5 | |||||
| 03 | 23:49 | SW 13 | 16.09 | Fair | CLR | 11.7 | -0.6 | 43% | 75.34 | 1004.3 | |||||||
| 03 | 22:49 | SW 13 | 16.09 | Fair | CLR | 12.2 | -1.1 | 40% | 75.41 | 1005.3 | |||||||
| 03 | 21:49 | SW 15 | 16.09 | Fair | CLR | 12.8 | -1.7 | 37% | 75.49 | 1006.2 | |||||||
| 03 | 20:49 | W 17 | 16.09 | Fair | CLR | 15.6 | -1.7 | 31% | 75.46 | 1005.9 | |||||||
| 03 | 19:49 | W 15 | 16.09 | Fair | CLR | 20.6 | -3.3 | 20% | 75.46 | 1005.9 | |||||||
| 03 | 18:49 | W 19 G 35 | 16.09 | Fair | CLR | 22.2 | -2.8 | 22.8 | 20 | 19% | 75.49 | 1006.1 | |||||
| 03 | 17:49 | NW 11 | 16.09 | Fair | CLR | 21.7 | -1.7 | 21% | 75.51 | 1006.7 | |||||||
| 03 | 16:49 | NW 31 G 48 | 16.09 | Fair | CLR | 22.2 | -3.3 | 18% | 75.57 | 1007.2 | |||||||
| 03 | 15:49 | NW 33 G 44 | 16.09 | Fair and Breezy | CLR | 21.7 | -0.6 | 23% | 75.62 | 1007.8 | |||||||
| 03 | 14:49 | NW 30 G 44 | 16.09 | Fair | CLR | 21.7 | -0.6 | 23% | 75.67 | 1008.3 | |||||||
| 03 | 12:49 | N 37 G 50 | 16.09 | Fair and Breezy | CLR | 20 | 0 | 20 | 10.6 | 26% | 75.72 | 1009.1 | |||||
| 03 | 11:49 | NW 39 G 52 | 16.09 | Fair and Breezy | CLR | 19.4 | 1.1 | 30% | 75.74 | 1009.4 | |||||||
| 03 | 10:49 | N 44 G 61 | 16.09 | Fair and Windy | CLR | 18.3 | 1.1 | 32% | 75.72 | 1009.3 | |||||||
| 03 | 09:49 | N 37 G 56 | 16.09 | Fair and Breezy | CLR | 16.1 | 1.7 | 38% | 75.69 | 1009.2 | |||||||
| 03 | 08:49 | NW 44 G 56 | 16.09 | Fair and Windy | CLR | 14.4 | 1.1 | 41% | 75.67 | 1008.7 | |||||||
| 03 | 07:49 | NW 30 G 48 | 16.09 | Fair | CLR | 12.2 | 1.7 | 49% | 75.62 | 1007.8 | |||||||
| 03 | 06:49 | NW 24 | 16.09 | Fair | CLR | 10.6 | 1.1 | 13.9 | 8.9 | 52% | 75.54 | 1006.9 | |||||
| 03 | 05:49 | W 19 | 16.09 | Fair | CLR | 9.4 | -0.6 | 50% | 7 | 75.49 | 1006.5 | ||||||
| 03 | 04:49 | SW 22 | 16.09 | Fair | CLR | 11.1 | -1.1 | 43% | 75.51 | 1006.5 | |||||||
| 03 | 03:49 | W 24 | 16.09 | Mostly Cloudy | BKN120 | 12.2 | -1.7 | 38% | 75.54 | 1007.0 | |||||||
| 03 | 02:49 | SW 28 | 16.09 | Fair | CLR | 13.3 | -1.7 | 36% | 75.54 | 1007.0 | |||||||
| 03 | 01:49 | S 26 | 16.09 | A Few Clouds | FEW120 | 12.2 | -1.7 | 38% | 75.62 | 1007.9 | |||||||
| 03 | 00:49 | S 28 | 16.09 | Overcast | OVC110 | 13.9 | -2.2 | 18.3 | 12.2 | 33% | 75.67 | 1008.9 | |||||
| 02 | 23:49 | S 24 | 16.09 | Overcast | OVC100 | 13.3 | -1.7 | 36% | 75.74 | 1009.7 | |||||||
| 02 | 22:49 | S 20 | 16.09 | Overcast | OVC100 | 13.3 | -1.1 | 37% | 75.82 | 1010.7 | |||||||
| 02 | 21:49 | S 19 | 16.09 | Fair | CLR | 12.8 | -1.1 | 38% | 75.84 | 1011.3 | |||||||
| 02 | 19:49 | SW 22 | 16.09 | Mostly Cloudy | BKN110 | 17.8 | -2.8 | 25% | 75.92 | 1012.3 | |||||||
| 02 | 18:49 | SW 24 | 16.09 | Overcast | OVC110 | 18.3 | -2.8 | 19.4 | 14.4 | 24% | 75.95 | 1013.0 | |||||
| 02 | 17:49 | SW 24 | 16.09 | A Few Clouds | FEW120 | 18.9 | -2.8 | 23% | 76.02 | 1013.9 | |||||||
| 02 | 16:49 | W 20 G 37 | 16.09 | Fair | CLR | 18.9 | -2.2 | 24% | 76.05 | 1014.4 | |||||||
| 02 | 15:49 | W 24 G 43 | 16.09 | Fair | CLR | 18.3 | -2.8 | 24% | 76.15 | 1015.5 | |||||||
| 02 | 14:49 | W 13 | 16.09 | Fair | CLR | 17.2 | -2.8 | 26% | 76.2 | 1016.6 | |||||||
| 02 | 13:49 | W 17 | 16.09 | Fair | CLR | 16.7 | -2.8 | 26% | 76.28 | 1017.5 | |||||||
| 02 | 12:49 | W 15 G 35 | 16.09 | Fair | CLR | 15 | -3.9 | 15 | 0.6 | 27% | 76.35 | 1018.6 | |||||
| 02 | 11:49 | W 13 G 28 | 16.09 | Fair | CLR | 13.3 | -5 | 28% | 76.4 | 1019.3 | |||||||
| 02 | 10:49 | W 17 G 30 | 16.09 | Fair | CLR | 11.7 | -5 | 31% | 76.45 | 1020.1 | |||||||
| 02 | 09:49 | SW 24 | 16.09 | Fair | CLR | 11.1 | -3.9 | 35% | 76.48 | 1020.3 | |||||||
| 02 | 08:49 | W 19 | 16.09 | Fair | CLR | 8.9 | -2.8 | 44% | 6 | 76.53 | 1020.8 | ||||||
| 02 | 07:49 | W 11 | 16.09 | Fair | CLR | 6.1 | -2.8 | 53% | 4 | 76.53 | 1020.8 | ||||||
| 02 | 06:49 | W 13 | 16.09 | Fair | CLR | 0.6 | -3.9 | 1.1 | -1.7 | 72% | -3 | 76.5 | 1020.8 | ||||
| 02 | 05:49 | W 9 | 16.09 | Fair | CLR | -1.1 | -4.4 | 79% | -4 | 76.5 | 1021.0 | ||||||
| 02 | 04:49 | W 11 | 16.09 | Fair | CLR | 0 | -3.3 | 79% | -3 | 76.5 | 1020.8 | ||||||
| 02 | 03:49 | W 11 | 16.09 | Fair | CLR | -0.6 | -3.9 | 79% | -4 | 76.48 | 1020.7 | ||||||
| 02 | 02:49 | W 11 | 16.09 | Fair | CLR | -0.6 | -3.9 | 79% | -4 | 76.48 | 1020.6 | ||||||
| 02 | 01:49 | W 7 | 16.09 | Fair | CLR | 0 | -3.9 | 75% | -2 | 76.5 | 1021.0 | ||||||
| 02 | 00:49 | W 9 | 16.09 | Fair | CLR | 0.6 | -3.9 | 11.1 | 0.6 | 72% | -2 | 76.53 | 1021.1 | ||||
| 01 | 23:49 | W 9 | 16.09 | Fair | CLR | 1.7 | -4.4 | 64% | -1 | 76.5 | 1020.9 | ||||||
| 01 | 22:49 | NW 7 | 16.09 | Fair | CLR | 2.2 | -5 | 59% | 0 | 76.5 | 1020.8 | ||||||
| 01 | 21:49 | N 11 | 16.09 | Fair | CLR | 5.6 | -4.4 | 49% | 3 | 76.5 | 1020.6 | ||||||
| 01 | 20:49 | N 11 | 16.09 | Fair | CLR | 6.1 | -3.9 | 49% | 4 | 76.45 | 1020.1 | ||||||
| Date | Time (cdt) | Wind (kph) | Vis. (km) | Weather | Sky Cond. | Air | Dwpt | Max. | Min. | Relative Humidity | Wind Chill (°C) | Heat Index (°C) | altimeter (cm) | sea level (mb) | 1 hr | 3 hr | 6 hr |
| 6 hour | |||||||||||||||||
| Temperature (ºC) | Pressure | Precipitation (cm) | |||||||||||||||